sat.trackr.live / text

‹ back to catalog

STARLINK-35057

NORAD 65525 · 2025-200F

PAYLOAD ACTIVE UNKNOWN

§ Identity

Operator
Country
US
Launch date
2025-09-06
Launch site
AFWTR
Launch vehicle
Mass (kg)
RCS (m²)

Purposes: comms

External: N2YO · Heavens-Above · Gunter

§ Orbital elements

Epoch: 2026-09-20T22:41:55.516416Z

Period
93.91 min
Inclination
97.2875°
Eccentricity
0.0000675
Mean motion
15.33452043 rev/d
Perigee alt
465.1 km
Apogee alt
466.0 km
Semi-major
6,843.7 km
B*
3.3719e-4
RAAN
330.3850°
Arg perigee
91.7885°
Mean anomaly
268.3435°
Rev number
5,871

§ Raw data

STARLINK-350571 65525U 25200F   26263.94578144  .00010828  00000+0  33719-3 0  99972 65525  97.2875 330.3850 0000675  91.7885 268.3435 15.33452043 58713

JSON: /api/v1/satellites/65525 · /tle

For live sub-satellite position, see the globe view (requires WebGL).

§ Visibility from observer

Set your observer location to see the next 7 days of passes ≥ 10°. The values pass through the URL so the page stays shareable.

No JS? Fill the form by hand. The geolocation button needs JavaScript.